Location: Tierra del Sol
(32.6128°N, 116.3319°W)
Time: 03:39:18
(UTC-07:00)

Envisat - Pass Details

Date: 11 October 2017
Orbit: 764 x 766 km, 98.2° (Epoch: 19 October)

Event Time Altitude Azimuth Distance (km) Brightness Sun altitude
Exits shadow 20:51:09 23° 343° (NNW) 1,572 4.8 -33.1°
Drops below altitude 10° 20:53:03 10° 345° (NNW) 2,305 5.7 -33.5°
Sets 20:55:22 0° 347° (NNW) 3,234 6.6 -34.0°
